www.pogodaiklimat.ru

Погода и климат >> Архив погоды >> Тунис >> Табарка


ПОГОДА в Табарке

  • Прогноз погоды в Табарке
  • Монитор погоды в Табарке

АРХИВ ПОГОДЫ в Табарке

Время (UTC), дата Ветер
(напр.,м/с)
 
Видим.   Явления Облачность Т
(С)
Тd
(С)
f
(%)
Тe
(С)
Тes
(С)
Комфортность P
(гПа)
Po
(гПа)
Тmin
(С)
Tmax
(С)
R
(мм)
R24
(мм)
S
(см)
03 10.07 ЮЗ 3-4
{4}
н/о н/о +22.3 +16.8 71 +27 +27 душно 1012.3 1004.4
06 10.07 З 2-6
{6}
н/о н/о +24.6 +21.7 84 +31 +31 очень
душно
1013.0 1005.2 +21.8 +26.9 0.2
09 10.07 З 8-11
{11}
10 км ясно +27.1 +21.2 70 +34 +37 очень
душно
1013.7 1006.0
12 10.07 З 5 15 км 5/5 600 м
[Cu med, cong]
+28.7 +23.4 73 +39 +45 очень
душно
1014.3 1006.6
15 10.07 З 8 15 км 5/5 600 м
[Cu med, cong]
+27.7 +22.4 73 +36 +37 очень
душно
1013.7 1006.0
18 10.07 З 3-7
{12}
10 км ясно +25.5 +23.0 86 +34 +34 очень
душно
1013.9 1006.1 +28.9
21 10.07 ЮЗ 3-4
{6}
н/о н/о +23.7 +23.5 99 +32 +32 очень
душно
1014.7 1006.9
00 11.07 ЮЗ 1-3
{6}
н/о н/о +22.4 +22.4 100 +30 +30 очень
душно
1014.4 1006.5
03 11.07 ЮЗ 2-3
{4}
н/о н/о +21.8 +21.8 100 +28 +28 душно 1013.0 1005.1
06 11.07 ЮЗ 1-2
{4}
н/о н/о +22.7 +21.9 95 +30 +30 очень
душно
1013.9 1006.1 +20.1 +25.5
09 11.07 СЗ 4 15 км 5/5 600 м
[Cu med, cong]
+26.4 +22.5 79 +35 +40 очень
душно
1014.4 1006.7
12 11.07 С 2 15 км 5/5 600 м
[Cu med, cong]
+28.1 +20.9 65 +35 +45 очень
душно
1013.6 1005.9
15 11.07 С 3 15 км 3/3 600 м
[Cu med, cong]
+28.0 +19.8 61 +34 +40 очень
душно
1013.6 1005.9
18 11.07 СЗ 2 15 км 3/3 600 м
[Cu med, cong]
+26.2 +22.3 79 +34 +34 очень
душно
1014.2 1006.4 +28.3
21 11.07 ЮЗ 2-2
{4}
н/о н/о +23.1 +22.8 98 +32 +32 очень
душно
1015.3 1007.5
00 12.07 Ю 1-2
{4}
н/о н/о +20.9 +20.9 100 +28 +28 очень
душно
1015.3 1007.4
03 12.07 штиль 0-1
{2}
н/о н/о +17.9 +17.9 100 +18 +18 1014.8 1006.8
06 12.07 В 1-1
{2}
н/о н/о +23.2 +17.2 69 +28 +28 душно 1015.8 1007.9 +17.2 +25.9
09 12.07 З 3 15 км 3/3 600 м
[Cu med, cong]
+26.9 +20.0 66 +33 +42 очень
душно
1016.2 1008.4
12 12.07 СЗ 2 15 км 3/3 600 м
[Cu med, cong]
+28.8 +18.6 54 +34 +48 очень
душно
1016.0 1008.3
15 12.07 СЗ 2 15 км ясно +30.0 +9.0 27 +29 +40 жарко 1015.5 1007.8
18 12.07 СЗ 2-3
{7}
15 км ясно +28.2 +15.1 45 +31 +31 душно 1015.4 1007.7 +30.5
21 12.07 ЮВ 1-1
{3}
н/о н/о +21.8 +16.3 71 +26 +26 душно 1015.9 1008.0
00 13.07 В 1-2
{3}
н/о н/о +18.2 +14.3 78 +20 +20 1015.5 1007.5
03 13.07 В 3-3
{4}
н/о н/о +17.5 +13.4 77 +17 +17 1014.2 1006.2
06 13.07 В 2-4
{5}
н/о н/о +22.1 +13.5 58 +25 +25 комфорт 1013.9 1006.0 +17.3 +28.0
09 13.07 С 1 15 км ясно +31.8 +6.8 21 +30 +48 жарко 1014.2 1006.5
12 13.07 СЗ 3 15 км ясно +33.5 +5.9 18 +31 +48 жарко 1013.3 1005.7
15 13.07 СЗ 2 15 км ясно +30.6 +15.1 39 +33 +43 душно 1013.0 1005.3
18 13.07 С 1 15 км ясно +29.4 +16.9 47 +33 +33 душно 1011.5 1003.8 +33.9
09 14.07 С 2 15 км ясно +27.9 +24.1 80 +39 +55 опасность
солнечного
удара
1010.4 1002.7
12 14.07 С 2 15 км ясно +29.2 +21.7 64 +37 +57 опасность
солнечного
удара
1009.4 1001.8
15 14.07 З 4 15 км 4/4 600 м
[Cu med, cong]
+27.4 +23.6 80 +37 +41 очень
душно
1008.8 1001.1
18 14.07 СЗ 2-5
{8}
10 км ясно +26.4 +23.1 82 +35 +36 очень
душно
1009.2 1001.5 +29.3
21 14.07 ЮЗ 2-3
{4}
н/о н/о +25.5 +18.9 67 +30 +30 душно 1010.0 1002.2
00 15.07 З 4-11
{15}
н/о н/о +25.4 +22.7 85 +33 +33 очень
душно
1009.5 1001.8
03 15.07 З 6-9
{9}
н/о н/о +24.8 +20.9 79 +31 +31 очень
душно
1007.7 1000.0
06 15.07 З 5-12
{13}
н/о н/о +25.2 +23.4 90 +34 +34 очень
душно
1008.9 1001.2 +24.2 +27.6 0.4 0.4
09 15.07 З 9 15 км 6/6 600 м
[Cu med, cong]
+27.5 +21.1 68 +35 +35 очень
душно
1009.8 1002.1
12 15.07 З 5 15 км 6/6 600 м
[Cu med, cong]
+28.8 +21.8 66 +37 +42 очень
душно
1010.2 1002.5
15 15.07 З 10 15 км 5/5 600 м
[Cu med, cong]
+28.5 +22.7 71 +38 +38 очень
душно
1010.4 1002.7
18 15.07 З 3-8
{16}
10 км ясно +26.2 +21.8 77 +34 +34 очень
душно
1010.9 1003.2 +29.4
21 15.07 ЮЗ 3-4
{7}
н/о н/о +23.8 +21.7 88 +30 +30 очень
душно
1012.0 1004.2
00 16.07 З 3-7
{7}
н/о н/о +24.0 +20.7 82 +30 +30 очень
душно
1011.5 1003.7
03 16.07 З 7-12
{12}
н/о н/о +24.0 +18.6 72 +29 +29 душно 1010.6 1002.8
06 16.07 З 5-14
{15}
н/о н/о +25.2 +17.4 62 +29 +29 душно 1011.5 1003.7 +23.3 +26.1
09 16.07 СЗ 10 15 км 5/5 600 м
[Cu med, cong]
+27.0 +17.5 56 +31 +31 душно 1012.5 1004.8
12 16.07 СЗ 5 15 км 5/5 600 м
[Cu med, cong]
+27.4 +18.9 60 +33 +39 очень
душно
1014.0 1006.3
15 16.07 СЗ 7 15 км 6/6 600 м
[Cu med, cong]
+26.7 +19.1 63 +32 +33 очень
душно
1014.7 1006.9
18 16.07 СЗ 3-8
{8}
15 км ясно +25.3 +19.7 71 +31 +31 очень
душно
1015.0 1007.2
21 16.07 З 5-7
{8}
н/о н/о +23.7 +19.6 78 +29 +29 душно 1016.0 1008.2

 

Местоположение метеостанции Табарка (Тунис): широта 36.95 долгота 8.75 высота над уровнем моря 21 м.

В архиве по умолчанию представлена погода в Табарке за последнюю неделю. Архивные данные за месяц целиком и за предыдущие месяцы, начиная с января 2011 года, Вы можете получить, выбрав интересующий диапазон дат из раскрывающегося списка и нажав кнопку "Ввод!".


*Определитесь, кто Вы:
робот инопланетянин человек

Внимание! Время в таблицах - всемирное. Для получения местного времени необходимо прибавить поправку, которая равна 1 ч.

Смотрите также архив погоды в соседних городах и на ближайших метеорологических станциях:

Погода в Бее (Тунис) (45 км)
Погода в Джендубе (Тунис) (52 км)
Погода в Тарфе (Алжир) (64 км)
Погода в Аннабе (Алжир) (84 км)
Погода в Эль-Кефе (Тунис) (91 км)
Погода в Бизерте (Тунис) (99 км)
Погода в Сук-Ахрасе (Алжир) (102 км)
Погода в Силиане (Тунис) (112 км)
Погода в Гельме (Алжир) (126 км)
Погода в Могхране (Тунис) (132 км)

Пояснения к столбцам:

Ветер - указаны скорость ветра в м/с - средняя за 10 мин, порывы в срок и между сроками (в фигурных скобках) и направление, откуда дует ветер: С - северный, СВ - северо-восточный, В - восточный, ЮВ - юго-восточный, Ю - южный, ЮЗ - юго-западный, З - западный, СЗ - северо-западный.
Видимость - горизонтальная дальность видимости в метрах или километрах. При видимости от 1 до 10 км при отсутствии осадков обычно наблюдается дымка, при ухудшении видимости до 1 км и менее - туман. В сухую погоду видимость может ухудшаться дымом, пылью или мглою.
Явления - указаны атмосферные явления, наблюдавшиеся в срок или в последний час перед сроком; фигурными скобками обозначены явления, наблюдавшиеся между сроками (за 1-3 часа до срока); квадратными скобками обозначены град или гололедные отложения с указанием их диаметра в мм.
Облачность - указаны через наклонную черту общая и нижняя облачность в баллах и высота нижней границы облаков в метрах; квадратными скобками обозначены формы облаков: Ci - перистые, Cs - перисто-слоистые, Cc - перисто-кучевые, Ac - высококучевые, As - высокослоистые, Sc - слоисто-кучевые, Ns - слоисто-дождевые, Cu - кучевые, Cb - кучево-дождевые. Подробнее классификацию облаков см. в Атласе облаков (PDF).
T - Температура воздуха - температура, измеренная на высоте 2 м над землей.
Td - Температура точки росы - температура, при понижении до которой содержащийся в воздухе водяной пар достигнет насыщения.
f - Относительная влажность воздуха - влажноcть воздуха, измеренная на высоте 2 м над землей.
Te - Эффективная температура - температура, которую ощущает одетый по сезону человек в тени. Характеристика душности погоды. При расчете учитывается влияние влажности воздуха и скорости ветра на теплоощущения человека.
Tes - Эффективная температура на солнце - температура, которую ощущает человек, с поправкой на солнечный нагрев. Характеристика знойности погоды. Зависит от высоты солнца над горизонтом, облачности и скорости ветра. Ночью, в пасмурную погоду, а также при ветре 12 м/с и более поправка равна нулю.
P - Атмосферное давление - приведенное к уровню моря атмосферное давление.
Po - Атмосферное давление - измеренное на уровне метеостанции атмосферное давление.
Tmin - Минимальная температура - минимум температуры воздуха на высоте 2 м над землей.
Tmax - Максимальная температура - максимум температуры воздуха на высоте 2 м над землей.
R - Количество осадков - Количество выпавших осадков за период времени, мм. При наведении курсора мыши на число - период времени, за который выпало указанное количество осадков.
R24 - Количество осадков - Количество выпавших осадков за 24 часа, мм.
S - Снежный покров - Высота снежного покрова, см. При наведении курсора мыши на число - состояние снежного покрова и степень покрытия местности в баллах.